Weather in Krasny Rog

Russia / Bryansk Oblast     53°00′16″N   33°44′32″E
temp.,
°C
wind,
m/s
gust,
m/s
humid.,
%
clouds,
%
prec.,
mm/h
press.,
hPa
HPBL,
m
20 may, fri
fri2000:00+9wnw4128577 0.0 1017257
03:00+8nw410876 0.0 1017213
06:00+8nne378913 0.1 1018236
09:00+13ne1269100 0.1 1018714
12:00+15n2358100 0.0 10171257
15:00+16n2256100 0.0 10161296
18:00+13ne2473100 0.1 1016149
21:00+10ese3587100 1.3 1015112
21 may, sat
sat2100:00+9ese2594100 0.9 1013203
03:00+8ese61196100 5.9 1011604
06:00+8ese61395100 5.9 1009702
09:00+9ese61393100 6.0 1008743
12:00+8ese51195100 0.7 1008716
15:00+9ese51094100 1.2 1007670
18:00+8se51197100 1.1 1005517
21:00+8ese5998100 4.1 1003440
22 may, sun
sun2200:00+8ese61298100 1.6 998508
03:00+10wsw41098100 2.6 994523
06:00+7wnw5898100 0.4 995562
09:00+6n71195100 0.9 995774
12:00+5ne101595100 0.6 998914
15:00+7ne7149279 0.8 10021173
18:00+9ne5108284 0.4 1004840
21:00+6n338560 0.6 100631
23 may, mon
mon2300:00+4n358847 0.0 100880
03:00+3n358633 0.0 100981
06:00+3n23835 0.0 101074
09:00+10nw346075 0.0 1010557
12:00+13nnw4644100 0.1 10092382
15:00+14nnw4642100 0.1 10092247
18:00+13nnw46545 0.0 10091682
21:00+7nw35740 0.0 101178
24 may, tue
tue2400:00+5nw37754 0.0 1012107
03:00+3nw358742 0.0 101386
06:00+4nnw367531 0.0 1014133
09:00+11n355316 0.0 1014458
12:00+14nnw45405 0.0 10141337
15:00+16nnw464722 0.0 10151879
18:00+14nw3668100 0.0 1015199
21:00+11wnw36765 0.0 101796